BEL8EU EBBR-ENBR

Flight info

Callsign BEL8EU
Flight time N/A
Altitude 36000
Route NIK L191 VICOT N873 SPY DCT SUTEB DCT ALUVA
Aircraft A320/M-SDE3FGHIRWY/LB1

Departure

Time 2026-05-06 18:55
Airport Brussels Airport (EBBR)

Arrival

Time N/A
Airport Bergen Airport, Flesland (ENBR)
Time Latitude Longitude Altitude Speed Heading
2026-05-06 18:01 50.90393 4.48538 121 ft 0 kts 155°
2026-05-06 18:44 50.90398 4.48534 117 ft 4 kts 155°
2026-05-06 18:44 50.90422 4.48515 116 ft 4 kts 139°
2026-05-06 18:45 50.90431 4.48491 118 ft 2 kts 66°
2026-05-06 18:45 50.90431 4.48488 118 ft 0 kts 65°
2026-05-06 18:47 50.90431 4.48490 118 ft 1 kts 65°
2026-05-06 18:47 50.90446 4.48513 118 ft 6 kts 37°
2026-05-06 18:47 50.90496 4.48574 119 ft 12 kts 49°
2026-05-06 18:47 50.90542 4.48721 121 ft 17 kts 65°
2026-05-06 18:48 50.90591 4.48893 120 ft 18 kts 65°
2026-05-06 18:48 50.90643 4.49067 119 ft 13 kts 64°
2026-05-06 18:48 50.90602 4.49167 122 ft 12 kts 155°
2026-05-06 18:48 50.90530 4.49217 121 ft 12 kts 155°
2026-05-06 18:49 50.90450 4.49277 119 ft 13 kts 154°
2026-05-06 18:49 50.90377 4.49330 122 ft 11 kts 155°
2026-05-06 18:49 50.90360 4.49435 123 ft 13 kts 70°
2026-05-06 18:49 50.90331 4.49537 122 ft 12 kts 177°
2026-05-06 18:50 50.90242 4.49505 127 ft 15 kts 194°
2026-05-06 18:50 50.90107 4.49450 130 ft 23 kts 194°
2026-05-06 18:50 50.89957 4.49388 133 ft 22 kts 194°
2026-05-06 18:50 50.89815 4.49331 142 ft 19 kts 195°
2026-05-06 18:51 50.89705 4.49286 149 ft 14 kts 194°
2026-05-06 18:51 50.89616 4.49240 154 ft 15 kts 216°
2026-05-06 18:51 50.89509 4.49165 160 ft 17 kts 194°
2026-05-06 18:51 50.89416 4.49127 164 ft 11 kts 194°
2026-05-06 18:52 50.89359 4.49104 166 ft 6 kts 194°
2026-05-06 18:52 50.89328 4.49092 167 ft 3 kts 194°
2026-05-06 18:52 50.89321 4.49089 167 ft 0 kts 194°
2026-05-06 18:53 50.89315 4.49087 167 ft 4 kts 194°
2026-05-06 18:53 50.89267 4.49067 170 ft 10 kts 195°
2026-05-06 18:53 50.89198 4.49038 175 ft 8 kts 195°
2026-05-06 18:54 50.89151 4.49075 176 ft 8 kts 100°
2026-05-06 18:54 50.89162 4.49154 176 ft 0 kts 70°
2026-05-06 18:54 50.89177 4.49222 176 ft 27 kts 70°
2026-05-06 18:54 50.89333 4.49896 177 ft 98 kts 70°
2026-05-06 18:55 50.89631 4.51182 177 ft 151 kts 70°
2026-05-06 18:55 50.90025 4.52811 706 ft 154 kts 65°
2026-05-06 18:55 50.90457 4.54322 1474 ft 151 kts 64°
2026-05-06 18:55 50.91040 4.55665 2148 ft 150 kts 32°
2026-05-06 18:56 50.92044 4.56026 2684 ft 153 kts 354°
2026-05-06 18:56 50.93006 4.55324 3231 ft 157 kts 319°
2026-05-06 18:56 50.93777 4.54098 3622 ft 170 kts 317°
2026-05-06 18:56 50.94675 4.52677 3857 ft 194 kts 317°
2026-05-06 18:57 50.95694 4.51075 4107 ft 219 kts 317°
2026-05-06 18:57 50.96835 4.49285 4491 ft 243 kts 317°
2026-05-06 18:57 50.98080 4.47337 5078 ft 257 kts 316°
2026-05-06 18:57 50.99364 4.45324 5931 ft 261 kts 316°
2026-05-06 18:58 51.00666 4.43283 6798 ft 265 kts 316°
2026-05-06 18:58 51.02027 4.41152 7224 ft 287 kts 316°
2026-05-06 18:58 51.03507 4.38835 7555 ft 309 kts 316°
2026-05-06 18:58 51.05085 4.36365 8207 ft 318 kts 316°
2026-05-06 18:59 51.06676 4.33871 8989 ft 324 kts 316°
2026-05-06 18:59 51.08291 4.31334 9791 ft 328 kts 316°
2026-05-06 18:59 51.09924 4.28763 10517 ft 332 kts 316°
2026-05-06 18:59 51.11573 4.26165 11269 ft 335 kts 315°
2026-05-06 19:00 51.13240 4.23538 12020 ft 339 kts 315°
2026-05-06 19:00 51.14909 4.20904 12737 ft 342 kts 315°
2026-05-06 19:00 51.16654 4.18246 13452 ft 347 kts 320°
2026-05-06 19:00 51.17930 4.16700 13898 ft 349 kts 323°
2026-05-06 19:01 51.20565 4.13610 14736 ft 354 kts 323°
2026-05-06 19:01 51.22533 4.11296 15344 ft 358 kts 323°
2026-05-06 19:01 51.24573 4.08909 15976 ft 361 kts 325°
2026-05-06 19:01 51.26754 4.06983 16576 ft 365 kts 336°
2026-05-06 19:02 51.29218 4.05756 17222 ft 369 kts 348°
2026-05-06 19:02 51.31754 4.05362 17836 ft 373 kts 358°
2026-05-06 19:02 51.34397 4.05333 18421 ft 377 kts 359°
2026-05-06 19:02 51.36998 4.05294 18955 ft 380 kts 358°
2026-05-06 19:03 51.39682 4.05241 19468 ft 383 kts 358°
2026-05-06 19:03 51.42331 4.05182 19973 ft 387 kts 358°
2026-05-06 19:03 51.45036 4.05125 20488 ft 391 kts 359°
2026-05-06 19:03 51.47754 4.05537 20995 ft 396 kts 10°
2026-05-06 19:04 51.50423 4.06759 21504 ft 402 kts 20°
2026-05-06 19:04 51.52990 4.08615 21961 ft 407 kts 23°
2026-05-06 19:04 51.55567 4.10540 22434 ft 411 kts 23°
2026-05-06 19:04 51.58176 4.12480 22904 ft 414 kts 23°
2026-05-06 19:05 51.60803 4.14425 23369 ft 418 kts 23°
2026-05-06 19:05 51.63454 4.16383 23760 ft 421 kts 23°
2026-05-06 19:05 51.66125 4.18362 24147 ft 424 kts 23°
2026-05-06 19:05 51.68806 4.20360 24539 ft 426 kts 23°
2026-05-06 19:06 51.71502 4.22375 24804 ft 427 kts 24°
2026-05-06 19:06 51.74201 4.24394 24927 ft 428 kts 24°
2026-05-06 19:06 51.76907 4.26419 24947 ft 429 kts 24°
2026-05-06 19:06 51.79623 4.28407 24945 ft 428 kts 19°
2026-05-06 19:07 51.82497 4.29619 25088 ft 428 kts
2026-05-06 19:07 51.84432 4.30225 25353 ft 429 kts
2026-05-06 19:07 51.88365 4.31468 25857 ft 432 kts
2026-05-06 19:07 51.90321 4.32090 26099 ft 433 kts
2026-05-06 19:08 51.93285 4.33031 26448 ft 435 kts
2026-05-06 19:08 51.96267 4.33974 26798 ft 438 kts
2026-05-06 19:08 51.99269 4.34922 27125 ft 441 kts
2026-05-06 19:08 52.02285 4.35877 27442 ft 443 kts
2026-05-06 19:09 52.05323 4.36841 27765 ft 445 kts
2026-05-06 19:09 52.08368 4.37810 28094 ft 447 kts
2026-05-06 19:09 52.11432 4.38785 28406 ft 449 kts
2026-05-06 19:09 52.14509 4.39764 28706 ft 452 kts
2026-05-06 19:10 52.17596 4.40748 29001 ft 454 kts
2026-05-06 19:10 52.20700 4.41743 29300 ft 455 kts
2026-05-06 19:10 52.23819 4.42744 29544 ft 458 kts
2026-05-06 19:10 52.26955 4.43749 29801 ft 460 kts
2026-05-06 19:11 52.30103 4.44770 30055 ft 462 kts
2026-05-06 19:11 52.33258 4.45814 30279 ft 463 kts
2026-05-06 19:11 52.36423 4.46876 30493 ft 465 kts
2026-05-06 19:11 52.39592 4.47946 30759 ft 465 kts 10°
2026-05-06 19:12 52.42754 4.49015 31074 ft 463 kts
2026-05-06 19:12 52.45906 4.50078 31381 ft 462 kts
2026-05-06 19:12 52.49052 4.51137 31684 ft 461 kts
2026-05-06 19:12 52.52198 4.52195 31985 ft 460 kts
2026-05-06 19:13 52.55328 4.53246 32296 ft 459 kts
2026-05-06 19:13 52.58453 4.54292 32603 ft 458 kts
2026-05-06 19:13 52.61572 4.55341 32916 ft 457 kts
2026-05-06 19:13 52.64682 4.56399 33225 ft 456 kts
2026-05-06 19:14 52.67780 4.57464 33545 ft 455 kts
2026-05-06 19:14 52.70873 4.58535 33843 ft 454 kts
2026-05-06 19:14 52.73959 4.59605 34101 ft 453 kts
2026-05-06 19:14 52.77048 4.60672 34334 ft 453 kts
2026-05-06 19:15 52.80134 4.61738 34549 ft 454 kts
2026-05-06 19:15 52.83225 4.62810 34764 ft 454 kts
2026-05-06 19:15 52.86316 4.63887 34953 ft 454 kts
2026-05-06 19:15 52.89409 4.64965 35156 ft 455 kts
2026-05-06 19:16 52.92508 4.66043 35352 ft 455 kts
2026-05-06 19:16 52.95612 4.67119 35505 ft 456 kts
2026-05-06 19:16 52.98721 4.68196 35680 ft 457 kts
2026-05-06 19:16 53.01835 4.69278 35860 ft 457 kts
2026-05-06 19:17 53.04947 4.70362 35960 ft 458 kts
2026-05-06 19:17 53.11187 4.72552 35977 ft 458 kts
2026-05-06 19:18 53.17420 4.74738 35984 ft 458 kts
2026-05-06 19:18 53.23667 4.76939 35976 ft 459 kts
2026-05-06 19:19 53.29916 4.79145 35975 ft 459 kts
2026-05-06 19:19 53.36133 4.81332 35980 ft 460 kts
2026-05-06 19:20 53.42388 4.83556 35988 ft 460 kts
2026-05-06 19:20 53.48650 4.85804 36010 ft 460 kts
2026-05-06 19:21 53.54908 4.88054 36016 ft 460 kts
2026-05-06 19:21 53.61170 4.90295 36015 ft 460 kts
2026-05-06 19:22 53.67427 4.92536 36026 ft 460 kts
2026-05-06 19:22 53.73683 4.94789 36018 ft 460 kts
2026-05-06 19:23 53.79941 4.97064 36013 ft 460 kts
2026-05-06 19:23 53.86197 4.99330 36009 ft 460 kts
2026-05-06 19:24 53.92450 5.01588 36016 ft 460 kts
2026-05-06 19:24 53.98710 5.03881 36005 ft 460 kts
2026-05-06 19:25 54.04973 5.06186 36007 ft 461 kts
2026-05-06 19:25 54.11245 5.08492 36006 ft 461 kts
2026-05-06 19:26 54.17518 5.10807 36019 ft 462 kts
2026-05-06 19:26 54.23801 5.13123 36017 ft 462 kts
2026-05-06 19:27 54.30093 5.15450 36022 ft 470 kts
2026-05-06 19:27 54.36561 5.17861 36024 ft 474 kts
2026-05-06 19:28 54.43010 5.20275 36019 ft 475 kts
2026-05-06 19:28 54.49438 5.22686 36013 ft 476 kts
2026-05-06 19:29 54.55907 5.25111 36032 ft 476 kts
2026-05-06 19:29 54.62384 5.27552 36035 ft 476 kts
2026-05-06 19:30 54.68862 5.29999 36049 ft 477 kts
2026-05-06 19:30 54.75340 5.32450 36033 ft 477 kts
2026-05-06 19:31 54.81824 5.34915 36044 ft 477 kts
2026-05-06 19:31 54.91548 5.38644 36063 ft 477 kts
2026-05-06 19:32 54.98038 5.41080 36062 ft 476 kts
2026-05-06 19:32 55.04584 5.41491 36054 ft 469 kts 353°
2026-05-06 19:33 55.11108 5.40883 36057 ft 469 kts 353°
2026-05-06 19:33 55.17628 5.40275 36079 ft 470 kts 353°
2026-05-06 19:34 55.24154 5.39682 36071 ft 470 kts 353°
2026-05-06 19:34 55.30683 5.39088 36069 ft 470 kts 353°
2026-05-06 19:35 55.37205 5.38487 36065 ft 470 kts 353°
2026-05-06 19:35 55.43731 5.37881 36079 ft 469 kts 353°
2026-05-06 19:36 55.50254 5.37261 36077 ft 469 kts 353°
2026-05-06 19:36 55.56775 5.36656 36075 ft 469 kts 353°
2026-05-06 19:37 55.63291 5.36040 36073 ft 469 kts 353°
2026-05-06 19:37 55.68711 5.35532 36091 ft 469 kts 353°
2026-05-06 19:38 55.76326 5.34826 36079 ft 469 kts 353°
2026-05-06 19:38 55.82836 5.34215 36077 ft 468 kts 353°
2026-05-06 19:39 55.89340 5.33594 36077 ft 468 kts 353°
2026-05-06 19:39 55.95800 5.32967 36075 ft 468 kts 353°
2026-05-06 19:40 56.02305 5.32341 36075 ft 468 kts 353°
2026-05-06 19:40 56.08807 5.31717 36074 ft 468 kts 353°
2026-05-06 19:41 56.15317 5.31100 36074 ft 468 kts 353°
2026-05-06 19:41 56.21820 5.30468 36087 ft 468 kts 353°
2026-05-06 19:42 56.28320 5.29845 36079 ft 468 kts 353°
2026-05-06 19:42 56.34820 5.29202 36075 ft 468 kts 353°
2026-05-06 19:43 56.41315 5.28569 36080 ft 468 kts 353°
2026-05-06 19:43 56.47814 5.27939 36104 ft 468 kts 353°
2026-05-06 19:44 56.54309 5.27304 36089 ft 467 kts 353°
2026-05-06 19:44 56.60801 5.26650 36084 ft 467 kts 353°
2026-05-06 19:45 56.67293 5.26005 36081 ft 467 kts 353°
2026-05-06 19:45 56.73779 5.25371 36104 ft 467 kts 353°
2026-05-06 19:46 56.80266 5.24721 36089 ft 467 kts 353°
2026-05-06 19:46 56.86749 5.24075 36083 ft 466 kts 353°
2026-05-06 19:47 56.93226 5.23425 36084 ft 466 kts 352°
2026-05-06 19:47 56.99705 5.22761 36078 ft 466 kts 352°
2026-05-06 19:48 57.06180 5.22116 36092 ft 466 kts 352°
2026-05-06 19:48 57.12657 5.21467 36083 ft 466 kts 352°
2026-05-06 19:49 57.19127 5.20798 36084 ft 466 kts 352°
2026-05-06 19:49 57.25600 5.20136 36082 ft 466 kts 352°
2026-05-06 19:50 57.32075 5.19484 36100 ft 466 kts 352°
2026-05-06 19:50 57.38542 5.18827 36091 ft 466 kts 352°
2026-05-06 19:51 57.45010 5.18147 36082 ft 465 kts 352°
2026-05-06 19:51 57.51478 5.17474 36078 ft 465 kts 352°
2026-05-06 19:52 57.57945 5.16800 36104 ft 465 kts 352°
2026-05-06 19:52 57.64404 5.16133 36092 ft 465 kts 352°
2026-05-06 19:53 57.69772 5.15575 36086 ft 465 kts 352°
2026-05-06 19:53 57.76229 5.14895 36084 ft 464 kts 352°
2026-05-06 19:54 57.82676 5.14198 36112 ft 464 kts 352°
2026-05-06 19:54 57.89126 5.13515 36095 ft 464 kts 352°
2026-05-06 19:55 57.95572 5.12839 36090 ft 464 kts 352°
2026-05-06 19:55 58.02007 5.12155 36086 ft 463 kts 352°
2026-05-06 19:56 58.08441 5.11465 36080 ft 463 kts 352°
2026-05-06 19:56 58.14869 5.10781 36101 ft 462 kts 352°
2026-05-06 19:57 58.21247 5.10091 36093 ft 462 kts 352°
2026-05-06 19:57 58.27669 5.09406 36089 ft 462 kts 352°
2026-05-06 19:58 58.34082 5.08717 36086 ft 462 kts 351°
2026-05-06 19:58 58.40493 5.08009 36075 ft 461 kts 351°
2026-05-06 19:59 58.46894 5.07301 36070 ft 460 kts 351°
2026-05-06 19:59 58.53294 5.06598 36070 ft 461 kts 351°
2026-05-06 20:00 58.59694 5.05908 36070 ft 461 kts 351°
2026-05-06 20:00 58.66090 5.05204 36071 ft 461 kts 351°
2026-05-06 20:01 58.72494 5.04492 36073 ft 461 kts 351°
2026-05-06 20:01 58.78895 5.03774 36090 ft 460 kts 351°
2026-05-06 20:02 58.85254 5.03057 35842 ft 451 kts 351°
2026-05-06 20:02 58.88367 5.02712 35592 ft 446 kts 351°
2026-05-06 20:02 58.91458 5.02376 35351 ft 444 kts 350°
2026-05-06 20:03 58.94543 5.02040 35154 ft 444 kts 350°
2026-05-06 20:03 58.97625 5.01697 34918 ft 444 kts 350°
2026-05-06 20:03 59.00708 5.01345 34679 ft 443 kts 349°
2026-05-06 20:03 59.03785 5.00990 34415 ft 442 kts 349°
2026-05-06 20:04 59.06854 5.00637 33581 ft 443 kts 349°
2026-05-06 20:04 59.09941 5.00279 32657 ft 445 kts 349°
2026-05-06 20:04 59.13027 4.99929 31939 ft 442 kts 349°
2026-05-06 20:04 59.16073 4.99598 31371 ft 436 kts 349°
2026-05-06 20:05 59.19086 4.99340 30997 ft 428 kts 351°
2026-05-06 20:05 59.22018 4.99299 30899 ft 415 kts 353°
2026-05-06 20:05 59.27646 4.99453 30778 ft 406 kts 352°
2026-05-06 20:06 59.33348 4.99474 30211 ft 408 kts 351°
2026-05-06 20:06 59.36140 4.99475 29617 ft 405 kts 352°
2026-05-06 20:06 59.38969 4.99490 28573 ft 412 kts 352°
2026-05-06 20:07 59.41913 4.99499 27363 ft 422 kts 352°
2026-05-06 20:07 59.44816 4.99520 26594 ft 422 kts 352°
2026-05-06 20:07 59.47786 4.99558 25947 ft 419 kts 352°
2026-05-06 20:07 59.50681 4.99600 25409 ft 414 kts 352°
2026-05-06 20:08 59.53530 4.99634 24368 ft 419 kts 352°
2026-05-06 20:08 59.56481 4.99647 23036 ft 430 kts 352°
2026-05-06 20:08 59.59502 4.99654 21775 ft 436 kts 352°
2026-05-06 20:08 59.62534 4.99675 20876 ft 434 kts 353°
2026-05-06 20:09 59.65538 4.99712 20093 ft 429 kts 353°
2026-05-06 20:09 59.68504 4.99755 19360 ft 424 kts 353°
2026-05-06 20:09 59.71435 4.99795 18649 ft 419 kts 353°
2026-05-06 20:09 59.74336 4.99828 17908 ft 414 kts 353°
2026-05-06 20:10 59.77200 4.99852 17152 ft 410 kts 354°
2026-05-06 20:10 59.80043 4.99870 16449 ft 406 kts 354°
2026-05-06 20:10 59.82855 4.99888 15780 ft 401 kts 354°
2026-05-06 20:10 59.85630 4.99907 15123 ft 397 kts 354°
2026-05-06 20:11 59.88383 4.99921 14482 ft 393 kts 354°
2026-05-06 20:11 59.91107 4.99940 13845 ft 390 kts 354°
2026-05-06 20:11 59.93804 4.99964 13137 ft 386 kts 355°
2026-05-06 20:11 59.96477 4.99987 12429 ft 382 kts 355°
2026-05-06 20:12 59.99127 5.00009 11722 ft 378 kts 356°
2026-05-06 20:12 60.01743 5.00029 11022 ft 375 kts 356°
2026-05-06 20:12 60.04309 5.00048 10690 ft 361 kts 357°
2026-05-06 20:12 60.06757 5.00076 10371 ft 341 kts 357°
2026-05-06 20:13 60.09057 5.00104 9880 ft 321 kts 357°
2026-05-06 20:13 60.11238 5.00126 9278 ft 307 kts 357°
2026-05-06 20:13 60.13329 5.00141 8675 ft 295 kts 357°
2026-05-06 20:13 60.15348 5.00155 8090 ft 285 kts 357°
2026-05-06 20:14 60.17298 5.00173 7511 ft 276 kts 357°
2026-05-06 20:14 60.19196 5.00186 6942 ft 269 kts 358°
2026-05-06 20:14 60.21046 5.00195 6412 ft 261 kts 358°
2026-05-06 20:14 60.22829 5.00203 5925 ft 252 kts 358°
2026-05-06 20:15 60.24553 5.00213 5444 ft 243 kts 358°
2026-05-06 20:15 60.26222 5.00226 4966 ft 236 kts 358°
2026-05-06 20:15 60.27843 5.00241 4493 ft 230 kts 358°
2026-05-06 20:15 60.29431 5.00255 4025 ft 226 kts 358°
2026-05-06 20:16 60.30973 5.00265 3675 ft 217 kts 358°
2026-05-06 20:16 60.32461 5.00300 3332 ft 210 kts
2026-05-06 20:16 60.33874 5.00878 3017 ft 204 kts 17°
2026-05-06 20:16 60.35192 5.01766 2773 ft 196 kts 17°
2026-05-06 20:17 60.36462 5.02608 2568 ft 188 kts 17°
2026-05-06 20:17 60.37644 5.03477 2491 ft 174 kts 26°
2026-05-06 20:17 60.38610 5.04835 2497 ft 168 kts 43°
2026-05-06 20:17 60.39333 5.06675 2502 ft 167 kts 60°
2026-05-06 20:18 60.39760 5.08844 2501 ft 166 kts 77°
2026-05-06 20:18 60.39861 5.10373 2499 ft 166 kts 88°